EW1015 Weather Reports


time (UTC)temp
F
wind
direction
speed
knots
gust
knots
rain 1hr
in
rain 24hr
in
rain mn
in
humidity
%
barometer
mb
20260507060037 42 291 2.6 4.3 0.00 0.53 0.00 16 1014.5
20260507054535 42 305 1.7 5.2 0.00 0.63 0.00 8 1014.6
20260507053034 43 296 1.7 5.2 0.00 0.63 0.00 1 1014.5
20260507051525 43 300 2.6 7.0 0.00 0.63 0.00 1 1014.6
20260507050021 43 306 4.3 7.8 0.00 0.63 0.00 1 1014.7
20260507044516 43 281 3.5 7.8 0.00 0.72 0.00 1 1014.8
20260507043012 43 323 3.5 7.8 0.00 0.72 0.00 1 1014.5
20260507041507 44 328 3.5 7.8 0.00 0.72 0.00 1 1014.5
20260507040007 43 304 3.5 9.6 0.00 0.72 0.00 1 1014.4
20260507034619 43 270 4.3 7.8 0.00 0.77 0.72 1 1014.2
20260507033105 44 283 4.3 7.0 0.00 0.77 0.72 1 1014.1
20260507031548 44 290 2.6 7.0 0.00 0.77 0.72 1 1013.9
20260507030044 44 279 3.5 7.0 0.00 0.77 0.72 1 1013.9
20260507024551 44 292 3.5 8.7 0.00 0.87 0.72 1 1013.9
20260507023035 45 303 4.3 7.8 0.00 0.87 0.72 1 1013.9
20260507021531 45 263 4.3 8.7 0.00 0.87 0.72 1 1013.9
20260507020026 45 306 4.3 8.7 0.00 0.87 0.72 1 1014.1
20260507014525 45 330 4.3 10.4 0.00 0.97 0.72 1 1013.7
20260507013017 46 321 7.0 11.3 0.01 0.97 0.72 1 1013.7
20260507011513 47 317 7.0 10.4 0.01 0.97 0.72 1 1013.7
20260507010024 47 290 7.8 11.3 0.01 0.97 0.72 1 1013.5
20260507004503 48 279 6.1 9.6 0.01 1.04 0.72 1 1013.1
20260507003100 48 273 3.5 7.8 0.00 1.03 0.71 1 1012.9
20260507001610 48 188 0.0 1.7 0.00 1.03 0.71 1 1012.4
20260507000050 48 135 0.0 1.7 0.00 1.03 0.71 1 1012.4
20260506234555 48 135 0.0 0.9 0.00 1.05 0.71 1 1012.4
20260506233043 48 135 0.0 1.7 0.00 1.05 0.71 1 1012.1
20260506231540 49 135 0.0 0.9 0.00 1.05 0.71 1 1012.2
20260506224612 48 44 0.0 1.7 0.00 1.05 0.71 1 1011.9
20260506223058 48 83 0.0 1.7 0.00 1.05 0.71 1 1011.8
20260506221548 48 159 0.9 3.5 0.00 1.05 0.71 1 1011.5
20260506220056 48 96 0.9 2.6 0.00 1.05 0.71 1 1011.8
20260506214540 48 329 0.9 2.6 0.00 1.05 0.71 1 1011.8
20260506213035 48 355 0.9 2.6 0.00 1.05 0.71 1 1011.8
20260506211531 48 355 0.9 2.6 0.00 1.05 0.71 1 1011.6
20260506210026 48 320 0.9 4.3 0.00 1.05 0.71 1 1011.5
20260506204523 47 311 0.9 3.5 0.00 1.05 0.71 1 1011.4
20260506203018 47 298 2.6 4.3 0.00 1.05 0.71 1 1011.7
20260506201515 46 350 2.6 7.0 0.00 1.05 0.71 1 1011.7
20260506200009 46 333 3.5 7.0 0.00 1.05 0.71 1 1011.7
20260506194507 46 5 2.6 7.8 0.00 1.05 0.71 1 1011.3
20260506193005 46 58 2.6 5.2 0.00 1.05 0.71 1 1011.2
20260506191501 46 344 1.7 5.2 0.00 1.05 0.71 1 1011.4
20260506190056 46 355 1.7 7.8 0.00 1.05 0.71 1 1011.4
20260506184552 46 348 4.3 7.8 0.00 1.05 0.71 1 1011.2
20260506183049 46 323 4.3 7.8 0.00 1.05 0.71 1 1011.0
20260506181558 46 355 3.5 7.0 0.00 1.05 0.71 1 1011.0
20260506180040 46 355 2.6 7.8 0.00 1.05 0.71 1 1011.1
20260506174536 46 360 4.3 7.0 0.00 1.05 0.71 1 1010.8
20260506173046 46 355 2.6 7.8 0.00 1.05 0.71 1 1010.6
20260506171535 46 351 2.6 7.8 0.00 1.05 0.71 1 1010.4
20260506170035 46 344 2.6 7.0 0.00 1.05 0.71 1 1010.2
20260506164534 46 17 4.3 7.0 0.00 1.05 0.71 1 1010.2
20260506163035 46 351 2.6 7.0 0.00 1.05 0.71 1 1010.0
20260506161533 46 14 2.6 5.2 0.01 1.05 0.71 1 1010.0
20260506160038 46 360 1.7 5.2 0.01 1.05 0.71 1 1010.1
20260506154532 45 335 1.7 4.3 0.02 1.05 0.71 1 1010.2
20260506153031 45 331 0.9 4.3 0.02 1.05 0.71 1 1010.2
20260506151531 45 344 0.9 4.3 0.01 1.04 0.70 1 1010.3
20260506150030 45 5 0.9 3.5 0.01 1.04 0.70 1 1010.2
20260506144530 44 57 2.6 4.3 0.00 1.03 0.69 1 1009.9
20260506143033 44 5 1.7 3.5 0.00 1.03 0.69 1 1009.7
20260506141524 44 65 2.6 6.1 0.00 1.03 0.69 1 1009.7
20260506140019 44 67 2.6 5.2 0.01 1.03 0.69 1 1009.7
20260506134520 44 42 3.5 7.8 0.01 1.03 0.69 1 1009.7
20260506133011 44 76 2.6 5.2 0.02 1.03 0.69 1 1009.6
20260506131516 44 45 2.6 7.8 0.04 1.03 0.69 1 1009.7
20260506130003 44 50 1.7 5.2 0.04 1.02 0.68 1 1009.6
20260506124600 44 49 1.7 3.5 0.05 1.02 0.68 1 1009.8
20260506123053 44 65 1.7 2.6 0.06 1.01 0.67 1 1009.8
20260506121548 44 34 1.7 4.3 0.04 0.99 0.65 1 1009.8
20260506120043 44 50 2.6 7.8 0.04 0.98 0.64 1 1009.8
20260506114539 44 48 1.7 7.0 0.04 0.97 0.63 1 1009.5
20260506113035 44 86 3.5 7.8 0.04 0.95 0.61 1 1009.3
20260506111530 44 73 4.3 9.6 0.08 0.95 0.61 1 1009.4
20260506110026 44 73 6.1 10.4 0.08 0.94 0.60 1 1009.5
20260506104521 44 68 4.3 8.7 0.10 0.94 0.59 1 1009.4
20260506103029 44 14 1.7 6.1 0.09 0.92 0.56 1 1009.6
20260506101512 44 59 3.5 8.7 0.06 0.88 0.53 1 1009.5
20260506100011 44 72 5.2 9.6 0.07 0.87 0.52 1 1009.5
20260506094503 45 26 1.7 6.1 0.04 0.84 0.49 1 1009.6
20260506093059 45 69 4.3 9.6 0.05 0.83 0.48 1 1009.0
20260506091555 45 63 3.5 8.7 0.06 0.82 0.47 1 1009.2
20260506090050 46 51 4.3 10.4 0.06 0.80 0.45 1 1009.1
20260506084546 46 72 3.5 9.6 0.07 0.80 0.45 1 1009.0
20260506083041 46 46 3.5 9.6 0.08 0.78 0.43 1 1009.4
20260506081537 46 44 3.5 5.2 0.09 0.76 0.41 1 1009.8
20260506073024 47 25 0.9 5.2 0.10 0.70 0.35 1 1009.6
20260506071523 48 73 2.6 7.8 0.09 0.66 0.31 1 1009.2
20260506061502 48 111 1.7 3.5 0.09 0.56 0.21 1 1009.3